{"data":{"norad_id":59668,"intl_designator":"2024-084Q","name":"STARLINK-31866","alt_names":[],"object_type":"PAYLOAD","status":"ACTIVE","operator":null,"country":"US","launch_date":"2024-05-06","launch_site_code":"AFETR","launch_vehicle":null,"mission":null,"orbit_class":"UNKNOWN","rcs_meters":null,"size_class":null,"mass_kg":null,"dimensions":null,"purposes":["comms"],"wikipedia_slug":null,"has_3d_model":false,"image_url":null,"decayed_at":null,"tle_current":{"epoch":"2026-05-24T21:33:47.706912Z","epoch_age_seconds":87311,"freshness":"FRESH","line1":"1 59668U 24084Q   26144.89846883  .00003083  00000+0  12151-3 0  9999","line2":"2 59668  43.0020 324.0111 0001738 265.5779  94.4874 15.27586384116112","mean_motion":15.27586384,"eccentricity":0.0001738,"inclination_deg":43.002,"raan_deg":324.0111,"arg_perigee_deg":265.5779,"mean_anomaly_deg":94.4874,"bstar":0.00012151,"rev_number":11611,"period_min":94.266354759549,"perigee_km":481.83750929245,"apogee_km":484.22245093474,"semimajor_km":6861.1669801136,"source":"CELESTRAK","updated_at":"2026-05-25T13:38:19.020430Z"}}}